Content
SEND FEEDBACK

Daily
Averages
Monthly
Summary
Canada

MONTREAL, QUEBEC


Home > North America > Canada > Quebec
Elevation: 118 feet     Latitude: 45 28N     Longitude: 073 45W

WEATHER
 
SELECT A DAY
Number of Records: 203,377;   Date Range: 1/1/95 - 12/18/14
 
SHARE

PRINT THIS DATA

[ ← Previous Day ]
WEATHER ALMANAC - JULY 16, 2013
[ Next Day → ]
[ °C ]   °F
Weather ElementAverageHighLow
Temperature81.1 °F87.8 °F (2:00 pm)69.8 °F (6:00 am)
Dewpoint65.6 °F71.6 °F (11:00 pm)62.6 °F (1:00 am)
Humidity58.8 %78 % (6:00 am)41 % (2:00 pm)
Barometer30.18 in30.23 in (8:00 am)30.14 in (7:00 pm)
Wind Speed6.6 mph12.7 mph (2:00 pm)
Weather ElementAverage
Visibility15 mi
Wind DirectionSSW (189.3 °)

Weather ElementTotal
Precipitation---
Cooling Degree Days13.8 (Base 65)
Growing Degree Days28.8 (Base 50)
Averaged from 27 records on July 16, 2013
WEATHER CONDITIONS BREAKOUT
WIND DIRECTION BREAKOUT
WEATHER BY HOUR - JULY 16, 2013
[ °C ]   °F
Local TimeTemperatureDewpointHumidityBarometerVisibilityWind DirectionWind SpeedGust SpeedPrecipitationEventsConditions
1:00 AM77.0 °F62.6 °F61 %30.16 in15.0 miCalmClear
2:00 AM75.0 °F63.0 °F58 %30.17 in15.0 miNW (320°)3.5 mph
2:00 AM75.2 °F62.6 °F65 %30.17 in15.0 miNW (320°)3.5 mphClear
3:00 AM73.4 °F62.6 °F69 %30.18 in15.0 miNW (320°)2.3 mphPartly Cloudy
4:00 AM73.4 °F62.6 °F69 %30.18 in15.0 miCalmClear
5:00 AM71.6 °F62.6 °F73 %30.19 in15.0 miWSW (240°)3.5 mphClear
6:00 AM69.8 °F62.6 °F78 %30.20 in15.0 miVariable2.3 mphClear
7:00 AM75.2 °F66.2 °F73 %30.21 in15.0 miNW (320°)2.3 mphPartly Cloudy
8:00 AM78.0 °F65.0 °F56 %30.23 in15.0 miNorth (10°)6.9 mphScattered Clouds
8:00 AM78.8 °F64.4 °F61 %30.23 in15.0 miNorth (10°)5.8 mphPartly Cloudy
9:00 AM80.6 °F64.4 °F58 %30.23 in15.0 miNNE (20°)5.8 mphPartly Cloudy
10:00 AM82.4 °F64.4 °F54 %30.23 in15.0 miESE (110°)3.5 mphPartly Cloudy
11:00 AM84.2 °F64.4 °F51 %30.23 in15.0 miWNW (300°)6.9 mphPartly Cloudy
12:00 PM84.2 °F64.4 °F51 %30.22 in15.0 miNNW (340°)3.5 mphPartly Cloudy
1:00 PM86.0 °F66.2 °F51 %30.21 in15.0 miSW (230°)9.2 mphPartly Cloudy
2:00 PM87.0 °F66.0 °F41 %30.19 in15.0 miWSW (250°)9.2 mphScattered Clouds
2:00 PM87.8 °F66.2 °F49 %30.19 in15.0 miSW (230°)12.7 mphPartly Cloudy
3:00 PM87.8 °F66.2 °F49 %30.18 in15.0 miSSW (210°)11.5 mphPartly Cloudy
4:00 PM87.8 °F66.2 °F49 %30.17 in15.0 miSSW (200°)11.5 mphPartly Cloudy
5:00 PM87.8 °F66.2 °F49 %30.16 in15.0 miSSW (200°)10.4 mphPartly Cloudy
6:00 PM87.8 °F68.0 °F52 %30.15 in15.0 miSW (220°)12.7 mphPartly Cloudy
7:00 PM86.0 °F68.0 °F55 %30.14 in15.0 miSSW (210°)9.2 mphClear
8:00 PM85.0 °F68.0 °F47 %30.14 in15.0 miSSW (210°)10.4 mphScattered Clouds
8:00 PM84.2 °F68.0 °F58 %30.14 in15.0 miSSW (210°)9.2 mphPartly Cloudy
9:00 PM82.4 °F69.8 °F66 %30.15 in15.0 miSSW (210°)9.2 mphPartly Cloudy
10:00 PM80.6 °F69.8 °F70 %30.15 in15.0 miSSW (210°)8.1 mphScattered Clouds
11:00 PM80.6 °F71.6 °F74 %30.15 in15.0 miSSW (210°)5.8 mphOvercast
Hourly data recorded from CYUL, located miles away from Montreal, Quebec







STORIES FROM OUR PARTNERS